NKS2880 KPIT-KMYR

Flight info

Callsign NKS2880
Flight time N/A
Altitude 36000
Route CKB ROA/N0433F370 SBV RDU/N0439F360
Aircraft A320/M-SDE3FGHIRWY/LB1

Departure

Time 2026-05-04 03:25
Airport Pittsburgh International Airport (KPIT)

Arrival

Time N/A
Airport Myrtle Beach International Airport (KMYR)
Time Latitude Longitude Altitude Speed Heading
2026-05-04 02:52 40.49496 -80.24424 1157 ft 0 kts 239°
2026-05-04 03:16 40.49503 -80.24410 1158 ft 3 kts 224°
2026-05-04 03:16 40.49514 -80.24401 1156 ft 0 kts 177°
2026-05-04 03:16 40.49512 -80.24401 1157 ft 0 kts 177°
2026-05-04 03:19 40.49509 -80.24399 1157 ft 2 kts 158°
2026-05-04 03:20 40.49500 -80.24375 1158 ft 4 kts 115°
2026-05-04 03:20 40.49471 -80.24327 1156 ft 9 kts 133°
2026-05-04 03:20 40.49421 -80.24243 1157 ft 13 kts 112°
2026-05-04 03:20 40.49412 -80.24115 1158 ft 15 kts 91°
2026-05-04 03:21 40.49442 -80.23982 1158 ft 16 kts 23°
2026-05-04 03:21 40.49563 -80.23973 1158 ft 19 kts
2026-05-04 03:21 40.49693 -80.23968 1158 ft 20 kts
2026-05-04 03:21 40.49836 -80.23962 1158 ft 16 kts
2026-05-04 03:22 40.49914 -80.23958 1158 ft 13 kts
2026-05-04 03:22 40.50016 -80.23943 1157 ft 16 kts 32°
2026-05-04 03:22 40.50037 -80.23798 1157 ft 18 kts 92°
2026-05-04 03:22 40.50044 -80.23627 1156 ft 19 kts 58°
2026-05-04 03:23 40.50144 -80.23650 1153 ft 15 kts 286°
2026-05-04 03:23 40.50147 -80.23703 1153 ft 0 kts 272°
2026-05-04 03:24 40.50147 -80.23706 1153 ft 6 kts 271°
2026-05-04 03:24 40.50157 -80.24124 1156 ft 85 kts 272°
2026-05-04 03:24 40.50187 -80.25273 1157 ft 164 kts 271°
2026-05-04 03:24 40.50242 -80.26923 1535 ft 193 kts 272°
2026-05-04 03:25 40.50548 -80.28726 2251 ft 215 kts 288°
2026-05-04 03:25 40.51229 -80.30591 2920 ft 237 kts 291°
2026-05-04 03:25 40.51947 -80.32596 3618 ft 236 kts 290°
2026-05-04 03:25 40.52561 -80.34367 4082 ft 194 kts 288°
2026-05-04 03:26 40.53193 -80.36035 4600 ft 216 kts 291°
2026-05-04 03:26 40.53909 -80.37859 5327 ft 228 kts 292°
2026-05-04 03:26 40.54639 -80.39729 6331 ft 231 kts 292°
2026-05-04 03:26 40.55350 -80.41624 7284 ft 230 kts 287°
2026-05-04 03:27 40.55432 -80.43675 8174 ft 231 kts 255°
2026-05-04 03:27 40.54463 -80.45402 8753 ft 254 kts 214°
2026-05-04 03:27 40.52658 -80.45871 9377 ft 282 kts 178°
2026-05-04 03:27 40.50652 -80.45567 10027 ft 300 kts 176°